Location: Ecklingerode
(51.5036°N, 10.3122°E)
Time: 01:43:13
(UTC+00:00)

GEOS 3 Rocket - Pass Details

Date: 29 October 2020
Orbit: 770 x 850 km, 115.0° (Epoch: 23 November)

Event Time Altitude Azimuth Distance (km) Brightness Sun altitude
Exits shadow 16:36:12 - 94° (E) 2,753 5.8 -6.7°
Reaches altitude 10° 16:37:01 10° 91° (E) 2,457 5.5 -6.8°
Maximum altitude 16:41:48 35° 27° (NNE) 1,348 4.5 -7.6°
Drops below altitude 10° 16:46:39 10° 324° (NW) 2,485 6.5 -8.3°
Sets 16:49:10 0° 316° (NW) 3,424 7.4 -8.7°
